Location: Bolzano
(46.5170°N, 11.3670°E)
Time: 15:27:43
(UTC+01:00)

ISS - Pass Details

Date: 04 December 2021
Orbit: 413 x 422 km, 51.6° (Epoch: 27 January)

Event Time Altitude Azimuth Distance (km) Brightness Sun altitude
Rises 17:45:30 0° 296° (WNW) 2,386 0.8 -12.8°
Reaches altitude 10° 17:47:38 10° 299° (WNW) 1,517 -0.3 -13.2°
Maximum altitude 17:51:01 66° 22° (NNE) 465 -3.8 -13.7°
Enters shadow 17:52:53 24° 100° (E) 918 -2.6 -14.0°
